• En España
  • Lista de países
  • Para 7 días
  • Temperatura del agua
  • Mapa Satelital
  • El tiempo en el mapa
  • Informadores
  • user-avatar
    Iniciar sesión

    Tiempo cada hora Maloe Vyzhlyatnikovo

    Hoy, 21 Abril, Sábado

    Tiempo Temperatura Precipitaciones Viento Presión Humedad
    00:00 +9°C° 0 mm 3 mps 733 mmHg 80%
    01:00 +8°C° 0 mm 4 mps 732 mmHg 84%
    02:00 +9°C° 0 mm 3 mps 731 mmHg 89%
    03:00 +9°C° 0 mm 3 mps 730 mmHg 91%
    04:00 +8°C° 0 mm 4 mps 729 mmHg 92%
    05:00 +10°C° 0 mm 4 mps 728 mmHg 93%
    06:00 +10°C° 0 mm 4 mps 727 mmHg 88%
    07:00 +10°C° 0 mm 5 mps 726 mmHg 82%
    08:00 +11°C° 0 mm 6 mps 725 mmHg 74%
    09:00 +14°C° 0 mm 6 mps 724 mmHg 69%
    10:00 +15°C° 0 mm 7 mps 723 mmHg 65%
    11:00 +17°C° 0 mm 7 mps 721 mmHg 60%
    12:00 +16°C° 0,7 mm 8 mps 721 mmHg 60%
    13:00 +15°C° 0,7 mm 8 mps 721 mmHg 60%
    14:00 +13°C° 0,7 mm 8 mps 720 mmHg 60%
    15:00 +12°C° 0,2 mm 9 mps 720 mmHg 61%
    16:00 +10°C° 0,2 mm 9 mps 721 mmHg 62%
    17:00 +7°C° 0,2 mm 9 mps 721 mmHg 63%
    18:00 +6°C° 0,1 mm 9 mps 722 mmHg 66%
    19:00 +5°C° 0,1 mm 8 mps 722 mmHg 68%
    20:00 +4°C° 0,1 mm 8 mps 723 mmHg 70%
    21:00 +4°C° 0,1 mm 8 mps 723 mmHg 71%
    22:00 +4°C° 0,1 mm 7 mps 724 mmHg 72%
    23:00 +3°C° 0,1 mm 7 mps 724 mmHg 73%

    Mañana, 22 Abril, Domingo

    Tiempo Temperatura Precipitaciones Viento Presión Humedad
    00:00 +3°C° 0 mm 7 mps 725 mmHg 75%
    01:00 +3°C° 0 mm 6 mps 725 mmHg 76%
    02:00 +2°C° 0 mm 5 mps 726 mmHg 78%
    03:00 +2°C° 0 mm 5 mps 726 mmHg 78%
    04:00 +2°C° 0 mm 5 mps 727 mmHg 79%
    05:00 +1°C° 0 mm 5 mps 727 mmHg 80%
    06:00 +1°C° 0 mm 4 mps 727 mmHg 78%
    07:00 +1°C° 0 mm 4 mps 728 mmHg 77%
    08:00 +3°C° 0 mm 4 mps 728 mmHg 75%
    09:00 +3°C° 0 mm 4 mps 728 mmHg 72%
    10:00 +3°C° 0 mm 4 mps 729 mmHg 70%
    11:00 +4°C° 0 mm 4 mps 729 mmHg 67%
    12:00 +4°C° 0 mm 4 mps 730 mmHg 65%
    13:00 +4°C° 0 mm 4 mps 730 mmHg 63%
    14:00 +4°C° 0 mm 4 mps 731 mmHg 62%
    15:00 +4°C° 0 mm 4 mps 731 mmHg 61%
    16:00 +4°C° 0 mm 4 mps 731 mmHg 61%
    17:00 +3°C° 0 mm 4 mps 732 mmHg 61%
    18:00 +1°C° 0 mm 4 mps 732 mmHg 63%
    19:00 +1°C° 0 mm 3 mps 733 mmHg 66%
    20:00 +1°C° 0 mm 3 mps 733 mmHg 69%
    21:00 +1°C° 0 mm 2 mps 734 mmHg 72%
    22:00 -1°C° 0 mm 2 mps 734 mmHg 75%
    23:00 -2°C° 0 mm 2 mps 735 mmHg 78%

    Pasado mañana, 23 Abril, Lunes

    Tiempo Temperatura Precipitaciones Viento Presión Humedad
    00:00 -3°C° 0 mm 2 mps 735 mmHg 78%
    01:00 -3°C° 0 mm 2 mps 736 mmHg 79%
    02:00 -3°C° 0 mm 2 mps 736 mmHg 80%
    03:00 -3°C° 0 mm 2 mps 736 mmHg 80%
    04:00 -3°C° 0 mm 2 mps 737 mmHg 80%
    05:00 -3°C° 0 mm 2 mps 737 mmHg 80%
    06:00 -2°C° 0 mm 2 mps 737 mmHg 70%
    07:00 +1°C° 0 mm 2 mps 738 mmHg 60%
    08:00 +1°C° 0 mm 3 mps 738 mmHg 50%
    09:00 +2°C° 0 mm 3 mps 738 mmHg 46%
    10:00 +3°C° 0 mm 3 mps 738 mmHg 42%
    11:00 +4°C° 0 mm 3 mps 738 mmHg 38%
    12:00 +6°C° 0 mm 2 mps 738 mmHg 37%
    13:00 +7°C° 0 mm 2 mps 738 mmHg 36%
    14:00 +7°C° 0 mm 2 mps 738 mmHg 35%
    15:00 +7°C° 0 mm 2 mps 737 mmHg 37%
    16:00 +7°C° 0 mm 2 mps 737 mmHg 38%
    17:00 +6°C° 0 mm 2 mps 737 mmHg 40%
    18:00 +5°C° 0 mm 2 mps 737 mmHg 48%
    19:00 +4°C° 0 mm 1 mps 737 mmHg 55%
    20:00 +2°C° 0 mm 1 mps 737 mmHg 63%
    21:00 +1°C° 0 mm 1 mps 737 mmHg 64%
    22:00 0°C° 0 mm 0 mps 737 mmHg 66%
    23:00 -1°C° 0 mm 0 mps 737 mmHg 67%

    24 Abril, Martes

    Tiempo Temperatura Precipitaciones Viento Presión Humedad
    00:00 0°C° 0 mm 1 mps 737 mmHg 68%
    01:00 0°C° 0 mm 1 mps 737 mmHg 68%
    02:00 0°C° 0 mm 1 mps 737 mmHg 69%
    03:00 0°C° 0 mm 1 mps 737 mmHg 68%
    04:00 0°C° 0 mm 1 mps 737 mmHg 68%
    05:00 -2°C° 0 mm 2 mps 736 mmHg 67%
    06:00 +1°C° 0 mm 2 mps 736 mmHg 60%
    07:00 +3°C° 0 mm 2 mps 736 mmHg 54%
    08:00 +4°C° 0 mm 3 mps 736 mmHg 47%
    09:00 +7°C° 0 mm 3 mps 735 mmHg 45%
    10:00 +8°C° 0 mm 3 mps 735 mmHg 43%
    11:00 +9°C° 0 mm 3 mps 735 mmHg 41%
    12:00 +10°C° 0 mm 4 mps 734 mmHg 42%
    13:00 +10°C° 0 mm 4 mps 734 mmHg 44%
    14:00 +11°C° 0 mm 4 mps 734 mmHg 45%
    15:00 +10°C° 0,1 mm 4 mps 733 mmHg 51%
    16:00 +10°C° 0,1 mm 4 mps 733 mmHg 57%
    17:00 +9°C° 0,1 mm 3 mps 733 mmHg 64%
    18:00 +8°C° 0,2 mm 3 mps 732 mmHg 71%
    19:00 +7°C° 0,2 mm 3 mps 732 mmHg 79%
    20:00 +5°C° 0,2 mm 3 mps 732 mmHg 87%
    21:00 +5°C° 0,1 mm 3 mps 732 mmHg 89%
    22:00 +5°C° 0,1 mm 3 mps 731 mmHg 91%
    23:00 +5°C° 0,1 mm 3 mps 731 mmHg 94%

    25 Abril, Miércoles

    Tiempo Temperatura Precipitaciones Viento Presión Humedad
    00:00 +5°C° 0,1 mm 3 mps 731 mmHg 94%
    01:00 +5°C° 0,1 mm 3 mps 730 mmHg 95%
    02:00 +5°C° 0,1 mm 3 mps 730 mmHg 95%
    03:00 +5°C° 0 mm 3 mps 730 mmHg 95%
    04:00 +5°C° 0 mm 3 mps 729 mmHg 95%
    05:00 +5°C° 0 mm 3 mps 729 mmHg 94%
    06:00 +5°C° 0,6 mm 3 mps 728 mmHg 92%
    07:00 +5°C° 0,6 mm 4 mps 728 mmHg 90%
    08:00 +5°C° 0,6 mm 4 mps 727 mmHg 88%
    09:00 +6°C° 0,6 mm 4 mps 727 mmHg 87%
    10:00 +6°C° 0,6 mm 4 mps 727 mmHg 87%
    11:00 +6°C° 0,6 mm 4 mps 727 mmHg 86%
    12:00 +7°C° 0,3 mm 4 mps 727 mmHg 79%
    13:00 +8°C° 0,3 mm 5 mps 727 mmHg 72%
    14:00 +9°C° 0,3 mm 5 mps 727 mmHg 64%
    15:00 +8°C° 0,3 mm 5 mps 727 mmHg 67%
    16:00 +8°C° 0,3 mm 5 mps 727 mmHg 69%
    17:00 +7°C° 0,3 mm 5 mps 728 mmHg 71%
    18:00 +7°C° 0,3 mm 4 mps 728 mmHg 77%
    19:00 +6°C° 0,3 mm 4 mps 728 mmHg 82%
    20:00 +5°C° 0,3 mm 4 mps 729 mmHg 87%
    21:00 +5°C° 0,3 mm 4 mps 729 mmHg 88%
    22:00 +5°C° 0,3 mm 3 mps 729 mmHg 89%
    23:00 +4°C° 0,3 mm 3 mps 729 mmHg 90%

    26 Abril, Jueves

    Tiempo Temperatura Precipitaciones Viento Presión Humedad
    00:00 +4°C° 0,1 mm 3 mps 730 mmHg 91%
    01:00 +4°C° 0,1 mm 3 mps 730 mmHg 91%
    02:00 +4°C° 0,1 mm 3 mps 730 mmHg 91%
    03:00 +3°C° 0 mm 3 mps 730 mmHg 92%
    04:00 +3°C° 0 mm 3 mps 730 mmHg 93%
    05:00 +2°C° 0 mm 3 mps 730 mmHg 94%
    06:00 +3°C° 0 mm 3 mps 731 mmHg 91%
    07:00 +4°C° 0 mm 3 mps 731 mmHg 88%
    08:00 +5°C° 0 mm 3 mps 731 mmHg 84%
    09:00 +7°C° 0 mm 3 mps 731 mmHg 80%
    10:00 +8°C° 0 mm 3 mps 731 mmHg 77%
    11:00 +8°C° 0 mm 3 mps 731 mmHg 73%
    12:00 +8°C° 0,1 mm 3 mps 731 mmHg 73%
    13:00 +8°C° 0,1 mm 3 mps 731 mmHg 74%
    14:00 +8°C° 0,1 mm 3 mps 731 mmHg 74%
    15:00 +8°C° 0 mm 3 mps 730 mmHg 74%
    16:00 +8°C° 0 mm 2 mps 730 mmHg 73%
    17:00 +8°C° 0 mm 2 mps 730 mmHg 73%
    18:00 +7°C° 0 mm 2 mps 730 mmHg 78%
    19:00 +6°C° 0 mm 2 mps 730 mmHg 83%
    20:00 +6°C° 0 mm 2 mps 730 mmHg 88%
    21:00 +5°C° 0 mm 2 mps 730 mmHg 91%
    22:00 +5°C° 0 mm 2 mps 730 mmHg 93%
    23:00 +5°C° 0 mm 2 mps 730 mmHg 96%
    Mostrar más